Cloud_Cover
5 4 0 100 100 100 100 100 100 100 100 100 100 100 84 98 100 100 100 100 100 100 100 100 100 100 100 100 100 100 100 100 100 100 100 100 100 100 100 100 100 49 60 41
5 5 4 2 100 100 100 100 100 100 100 100 79 74 12 100 100 100 100 100 100 100 100 100 100 100 100 100 100 100 100 100 100 100 100 100 100 100 100 100 100 21 100 34
5 5 3 0 64 100 100 100 100 100 100 100 100 100 100 100 94 100 100 100 100 100 100 100 100 100 100 100 100 100 100 100 100 100 100 100 100 100 100 100 99 56 70 96
5 4 4 0 100 100 100 100 100 100 100 100 75 95 96 100 100 100 100 100 100 100 100 100 100 100 100 100 100 100 100 100 100 100 100 100 100 100 100 95 97 100 54 100
5 3 5 4 100 100 100 100 100 100 100 100 100 100 100 100 99 100 51 100 100 100 100 100 100 100 100 100 100 100 100 100 100 100 100 100 100 100 100 100 100 100 100 91
5 5 6 38 100 100 100 100 100 100 100 100 100 100 100 100 100 100 36 96 100 100 100 100 100 100 100 100 100 100 100 100 100 100 100 100 99 100 100 100 100 100 100 100
9 42 5 11 100 100 100 100 100 100 100 100 100 100 100 100 100 65 100 100 100 100 100 100 100 100 100 100 100 100 100 100 100 100 100 100 100 100 100 100 100 100 100 100
100 42 45 5 44 100 100 100 100 100 100 100 100 100 100 100 100 100 100 100 100 100 100 100 100 100 100 100 100 100 100 100 100 100 100 99 97 100 100 100 57 90 100 77
68 10 11 17 100 100 100 100 100 100 100 100 100 100 100 100 100 100 100 100 100 100 100 100 100 100 100 100 100 100 100 100 100 100 100 100 75 100 100 100 52 100 98 28
92 94 56 100 100 100 100 100 100 100 100 100 100 100 100 100 100 93 100 99 96 100 100 100 100 100 100 100 100 100 100 100 100 100 100 100 100 100 94 96 36 60 81 65
100 59 100 100 100 100 100 100 100 100 100 100 100 100 100 100 100 100 97 100 86 100 89 100 100 100 100 100 100 100 100 100 100 100 100 100 100 100 81 56 66 99 100 100
100 100 100 100 100 100 100 100 100 100 100 100 100 100 100 100 100 100 100 98 80 91 61 95 100 100 100 100 100 100 100 100 100 100 100 100 100 100 86 82 63 93 100 99
100 100 100 100 100 100 100 100 100 100 100 100 100 100 100 100 100 34 88 95 100 6 5 21 85 100 100 100 100 100 100 100 100 100 91 100 100 100 100 100 100 100 100 98
100 100 100 100 100 100 100 100 100 100 100 100 100 100 100 33 49 23 12 84 67 75 100 100 100 100 100 100 100 95 100 99 65 97 68 65 22 52 63 100 30 17 100 100
100 100 100 100 100 100 100 100 100 87 66 100 86 24 8 5 37 30 6 5 66 100 100 100 87 78 96 100 66 32 96 63 60 57 54 99 94 84 99 100 100 100 100 99
100 100 100 100 100 85 18 96 58 96 100 91 99 26 66 30 54 5 8 7 57 85 100 100 88 92 97 100 94 19 100 81 100 100 90 100 90 5 12 5 5 18 27 44
100 92 9 5 5 24 38 100 85 57 62 28 79 30 44 7 46 97 86 98 100 98 100 97 83 100 97 74 54 100 100 100 100 100 85 34 9 13 8 52 56 84 92 91
74 8 19 38 40 86 80 55 5 30 46 53 97 100 100 80 82 80 82 100 100 99 100 99 100 99 100 100 100 100 100 100 88 51 34 58 28 14 100 100 100 100 100 100
16 14 20 20 65 100 94 67 94 100 100 100 100 100 100 100 100 100 100 100 100 69 98 100 100 100 100 100 97 77 99 65 63 42 53 13 62 98 100 100 100 100 100 100
5 42 73 31 82 100 100 100 100 100 100 100 100 100 100 100 100 100 100 55 100 100 100 100 100 100 91 88 54 79 80 66 45 29 48 100 100 100 100 100 100 100 100 100
78 71 89 100 100 100 100 100 100 100 100 100 100 100 100 100 100 100 100 99 100 100 100 100 100 99 100 93 65 53 76 86 100 100 100 100 100 100 100 100 100 100 100 100
100 100 100 100 100 100 100 100 100 100 100 100 100 100 100 100 100 100 100 100 100 100 88 100 94 86 71 74 88 100 100 100 100 100 100 100 100 100 100 100 100 100 100 100
100 100 100 100 100 100 100 100 100 100 100 100 100 100 100 100 100 100 100 97 99 97 85 72 97 99 100 100 100 100 100 100 100 100 100 100 100 100 100 100 100 100 100 100
100 99 100 93 100 100 100 100 100 100 100 100 100 100 100 100 100 99 98 100 100 100 100 100 100 100 100 100 100 100 100 100 100 100 100 100 96 98 98 98 96 88 97 100
100 100 100 100 100 100 96 100 100 91 95 52 86 100 100 100 100 100 100 100 100 100 100 100 100 100 100 100 100 100 98 68 100 100 100 100 100 100 98 95 95 100 100 100
100 100 100 100 100 100 100 100 100 88 69 62 72 94 100 100 100 100 100 100 100 100 100 100 100 100 100 100 100 100 100 99 100 100 100 100 100 100 100 100 100 100 100 100
92 98 100 97 75 100 100 100 100 96 95 97 96 100 100 100 100 100 100 100 100 100 100 100 100 100 100 100 94 40 56 100 100 100 100 100 100 100 100 100 100 100 100 100